ICEYE-X47

导读

ICEYE-X47是芬兰冰眼公司(ICEYE)制造的合成孔径雷达(SAR)卫星,于2024年12月21日发射,属于ICEYE星座扩容任务的四颗新卫星之一。作为全球最大SAR卫星星座的新成员,它具备全天时、全天候对地观测能力,最高分辨率达0.5米,可覆盖从15km×15km到200km×600km不同规模成像场景,服务灾害监测、海事管控、地理信息等商业及政府客户需求。

基本信息
目录编号:
62389
目录名称:
ICEYE-X47
国际标识:
2024-247N
轨道中心:
EARTH
卫星名称:
ICEYE-X47
卫星全名:
ICEYE-X47
卫星状态:
在轨 (已飞行630 天)
发射日期:
2024-12-21 UTC
国别 :
(FI)
星等 :
--
该卫星已列入 空间交会检测服务 Space Conjunction Data Service (SCDS) ,当前飞行风险评估等级: 无高风险
轨道信息
数据来源 国际轨道数据 AOE轨道数据
星历时间 2026-09-12T09:35:40+0800
8小时前
查看轨道信息
2026-09-06T08:00:00+0800
6天前
查看轨道信息
半长轴 6902.548km 6902.621km
偏心率 0.0001905 0.0002374
轨道倾角 44.996° 44.996°
近地点辐角 348.137° 320.981°
升交点赤经 252.760° 285.190°
平近点角 11.947° 63.308°
近地点 523.096km 522.845km
远地点 525.726km 526.123km
周期 95.120分钟 95.122分钟
每日圈数 15.138703 15.138463
详细信息
使用方式:
暂无
2D轨道图
3D轨道图
轨道高度分析图
轨道倾角分析图
轨道综合分析图
查看轨道综合分析图
交会数据列表
事件ID 空间交会对象 最接近时刻(TCA) 交会距离 交会风险概率(CRP) 交会风险指数(CRI) 操作
CDM_260912-200205-738906-238924
2026-09-12T
20:02:16+0000
2.631 km
极远距离
1.184482E-6 低风险 0.36
CDM_260913-145804-842606-238921
2026-09-13T
14:58:49+0000
2.611 km
极远距离
1.126275E-6 低风险 0.36
与全量物体交会距离演化趋势
与全量物体交会风险概率演化趋势